APG217 RPLL-RPVE

Flight info

Callsign APG217
Flight time N/A
Altitude 25000
Route VERD2R VERDE W24 TAPER TAPE7B
Aircraft A320/L-V/N

Departure

Time 2026-05-08 06:39
Airport Ninoy Aquino International Airport (RPLL)

Arrival

Time N/A
Airport Godofredo P. Ramos Airport (RPVE)
Time Latitude Longitude Altitude Speed Heading
2026-05-08 06:17 14.50886 121.01334 81 ft 0 kts 329°
2026-05-08 06:29 14.50883 121.01335 81 ft 1 kts 330°
2026-05-08 06:29 14.50870 121.01343 81 ft 2 kts 329°
2026-05-08 06:29 14.50857 121.01350 81 ft 2 kts 329°
2026-05-08 06:29 14.50844 121.01358 81 ft 2 kts 329°
2026-05-08 06:30 14.50831 121.01366 81 ft 2 kts 329°
2026-05-08 06:30 14.50822 121.01372 81 ft 1 kts 329°
2026-05-08 06:30 14.50811 121.01380 81 ft 2 kts 303°
2026-05-08 06:30 14.50805 121.01395 81 ft 2 kts 281°
2026-05-08 06:31 14.50805 121.01410 81 ft 2 kts 256°
2026-05-08 06:31 14.50808 121.01418 82 ft 0 kts 242°
2026-05-08 06:31 14.50811 121.01424 81 ft 0 kts 240°
2026-05-08 06:33 14.50808 121.01418 81 ft 2 kts 240°
2026-05-08 06:33 14.50805 121.01413 81 ft 3 kts 240°
2026-05-08 06:33 14.50790 121.01386 81 ft 5 kts 240°
2026-05-08 06:33 14.50767 121.01344 81 ft 4 kts 240°
2026-05-08 06:34 14.50746 121.01319 81 ft 6 kts 214°
2026-05-08 06:34 14.50699 121.01321 81 ft 5 kts 167°
2026-05-08 06:34 14.50662 121.01305 81 ft 6 kts 228°
2026-05-08 06:34 14.50636 121.01259 81 ft 8 kts 240°
2026-05-08 06:35 14.50604 121.01202 81 ft 10 kts 240°
2026-05-08 06:35 14.50566 121.01134 81 ft 11 kts 240°
2026-05-08 06:35 14.50523 121.01057 81 ft 12 kts 240°
2026-05-08 06:35 14.50478 121.00974 81 ft 13 kts 240°
2026-05-08 06:36 14.50429 121.00888 81 ft 14 kts 239°
2026-05-08 06:36 14.50378 121.00795 81 ft 14 kts 241°
2026-05-08 06:36 14.50326 121.00702 81 ft 15 kts 240°
2026-05-08 06:36 14.50273 121.00605 81 ft 15 kts 240°
2026-05-08 06:37 14.50219 121.00510 81 ft 15 kts 240°
2026-05-08 06:37 14.50165 121.00412 81 ft 10 kts 240°
2026-05-08 06:37 14.50122 121.00362 81 ft 9 kts 188°
2026-05-08 06:37 14.50061 121.00388 81 ft 10 kts 151°
2026-05-08 06:38 14.50021 121.00430 81 ft 7 kts 94°
2026-05-08 06:38 14.50038 121.00470 81 ft 5 kts 59°
2026-05-08 06:38 14.50085 121.00554 81 ft 35 kts 60°
2026-05-08 06:38 14.50330 121.00991 82 ft 102 kts 60°
2026-05-08 06:39 14.50779 121.01804 89 ft 154 kts 64°
2026-05-08 06:39 14.51291 121.02747 675 ft 146 kts 64°
2026-05-08 06:39 14.51794 121.03651 1193 ft 150 kts 64°
2026-05-08 06:39 14.52330 121.04628 1586 ft 165 kts 62°
2026-05-08 06:40 14.52926 121.05708 1980 ft 181 kts 62°
2026-05-08 06:40 14.53581 121.06879 2233 ft 199 kts 62°
2026-05-08 06:40 14.54214 121.08205 2605 ft 211 kts 78°
2026-05-08 06:40 14.54023 121.09675 3169 ft 215 kts 120°
2026-05-08 06:41 14.52920 121.10722 3817 ft 221 kts 152°
2026-05-08 06:41 14.51389 121.11009 4418 ft 231 kts 181°
2026-05-08 06:41 14.49778 121.10834 5059 ft 236 kts 183°
2026-05-08 06:41 14.48131 121.10662 5742 ft 239 kts 182°
2026-05-08 06:42 14.46443 121.10505 6477 ft 241 kts 182°
2026-05-08 06:42 14.44763 121.10360 7194 ft 245 kts 182°
2026-05-08 06:42 14.43058 121.10220 7911 ft 248 kts 182°
2026-05-08 06:42 14.41347 121.10083 8626 ft 252 kts 182°
2026-05-08 06:43 14.39595 121.09946 9351 ft 255 kts 182°
2026-05-08 06:43 14.37817 121.09808 10087 ft 258 kts 182°
2026-05-08 06:43 14.36015 121.09669 10824 ft 260 kts 182°
2026-05-08 06:43 14.34192 121.09530 11543 ft 263 kts 182°
2026-05-08 06:44 14.32375 121.09391 12236 ft 266 kts 182°
2026-05-08 06:44 14.30523 121.09250 12918 ft 268 kts 182°
2026-05-08 06:44 14.28646 121.09106 13595 ft 271 kts 182°
2026-05-08 06:44 14.26783 121.08963 14246 ft 274 kts 182°
2026-05-08 06:45 14.24857 121.08815 14908 ft 276 kts 182°
2026-05-08 06:45 14.22933 121.08668 15547 ft 279 kts 182°
2026-05-08 06:45 14.21002 121.08520 16166 ft 281 kts 181°
2026-05-08 06:45 14.19052 121.08370 16754 ft 283 kts 181°
2026-05-08 06:46 14.17053 121.08218 17371 ft 286 kts 181°
2026-05-08 06:46 14.15067 121.08069 17963 ft 289 kts 181°
2026-05-08 06:46 14.13051 121.07917 18554 ft 291 kts 181°
2026-05-08 06:46 14.11023 121.07764 19139 ft 293 kts 182°
2026-05-08 06:47 14.08969 121.07609 19711 ft 296 kts 182°
2026-05-08 06:47 14.06912 121.07452 20257 ft 300 kts 182°
2026-05-08 06:47 14.04812 121.07293 20798 ft 303 kts 182°
2026-05-08 06:47 14.02707 121.07132 21326 ft 307 kts 182°
2026-05-08 06:48 14.00546 121.06967 21845 ft 311 kts 182°
2026-05-08 06:48 13.98373 121.06802 22376 ft 314 kts 182°
2026-05-08 06:48 13.96185 121.06635 22891 ft 317 kts 183°
2026-05-08 06:48 13.93962 121.06466 23406 ft 321 kts 182°
2026-05-08 06:49 13.91739 121.06296 23918 ft 323 kts 182°
2026-05-08 06:49 13.89473 121.06124 24419 ft 326 kts 183°
2026-05-08 06:49 13.87183 121.05950 24762 ft 335 kts 183°
2026-05-08 06:49 13.84782 121.05769 24827 ft 352 kts 183°
2026-05-08 06:50 13.82289 121.05581 24834 ft 371 kts 183°
2026-05-08 06:50 13.79649 121.05380 24831 ft 389 kts 183°
2026-05-08 06:50 13.76868 121.05170 24826 ft 406 kts 183°
2026-05-08 06:50 13.74013 121.04952 24819 ft 422 kts 183°
2026-05-08 06:51 13.70999 121.04724 24812 ft 437 kts 183°
2026-05-08 06:51 13.67957 121.04494 24811 ft 443 kts 183°
2026-05-08 06:51 13.64859 121.04261 24813 ft 444 kts 183°
2026-05-08 06:51 13.61763 121.04026 24816 ft 444 kts 183°
2026-05-08 06:52 13.58673 121.03793 24819 ft 444 kts 183°
2026-05-08 06:52 13.55566 121.03558 24821 ft 444 kts 183°
2026-05-08 06:52 13.52498 121.03542 24812 ft 442 kts 173°
2026-05-08 06:52 13.49482 121.04231 24819 ft 440 kts 159°
2026-05-08 06:53 13.46739 121.05583 24834 ft 438 kts 147°
2026-05-08 06:53 13.44235 121.07316 24859 ft 437 kts 143°
2026-05-08 06:53 13.41734 121.09139 24879 ft 437 kts 143°
2026-05-08 06:53 13.39246 121.10944 24895 ft 437 kts 143°
2026-05-08 06:54 13.36765 121.12715 24907 ft 437 kts 144°
2026-05-08 06:54 13.34240 121.14494 24916 ft 437 kts 144°
2026-05-08 06:54 13.31738 121.16241 24919 ft 437 kts 144°
2026-05-08 06:54 13.29209 121.18008 24919 ft 437 kts 144°
2026-05-08 06:55 13.26705 121.19758 24758 ft 437 kts 144°
2026-05-08 06:55 13.24175 121.21529 24511 ft 435 kts 144°
2026-05-08 06:55 13.21683 121.23275 24266 ft 433 kts 144°
2026-05-08 06:55 13.19212 121.25005 24023 ft 432 kts 144°
2026-05-08 06:56 13.16712 121.26756 23776 ft 431 kts 144°
2026-05-08 06:56 13.14249 121.28481 23528 ft 429 kts 144°
2026-05-08 06:56 13.11789 121.30203 23279 ft 428 kts 144°
2026-05-08 06:56 13.09314 121.31937 23028 ft 426 kts 144°
2026-05-08 06:57 13.06881 121.33642 22782 ft 424 kts 144°
2026-05-08 06:57 13.04451 121.35344 22534 ft 423 kts 144°
2026-05-08 06:57 13.02018 121.37048 22287 ft 422 kts 144°
2026-05-08 06:57 12.99583 121.38751 22046 ft 420 kts 144°
2026-05-08 06:58 12.97193 121.40425 21803 ft 419 kts 144°
2026-05-08 06:58 12.94783 121.42112 21561 ft 417 kts 144°
2026-05-08 06:58 12.92370 121.43799 21322 ft 416 kts 144°
2026-05-08 06:58 12.89999 121.45457 21077 ft 414 kts 143°
2026-05-08 06:59 12.87625 121.47108 20829 ft 412 kts 144°
2026-05-08 06:59 12.85228 121.48772 20586 ft 411 kts 143°
2026-05-08 06:59 12.82883 121.50401 20356 ft 409 kts 143°
2026-05-08 06:59 12.80532 121.52040 20120 ft 407 kts 143°
2026-05-08 07:00 12.78171 121.53685 19873 ft 406 kts 143°
2026-05-08 07:00 12.75846 121.55307 19641 ft 404 kts 143°
2026-05-08 07:00 12.73539 121.56917 19415 ft 402 kts 143°
2026-05-08 07:00 12.71227 121.58530 19181 ft 400 kts 143°
2026-05-08 07:01 12.68922 121.60141 18921 ft 399 kts 143°
2026-05-08 07:01 12.66645 121.61730 18660 ft 397 kts 143°
2026-05-08 07:01 12.64348 121.63333 18307 ft 395 kts 143°
2026-05-08 07:01 12.62092 121.64908 17881 ft 392 kts 143°
2026-05-08 07:02 12.59853 121.66476 17422 ft 389 kts 143°
2026-05-08 07:02 12.57626 121.68043 16941 ft 386 kts 142°
2026-05-08 07:02 12.55392 121.69611 16444 ft 383 kts 142°
2026-05-08 07:02 12.53280 121.71091 15958 ft 381 kts 142°
2026-05-08 07:03 12.51090 121.72623 15460 ft 379 kts 143°
2026-05-08 07:03 12.48913 121.74144 14937 ft 377 kts 143°
2026-05-08 07:03 12.46736 121.75665 14431 ft 375 kts 143°
2026-05-08 07:03 12.44594 121.77156 13934 ft 373 kts 143°
2026-05-08 07:04 12.42460 121.78642 13426 ft 371 kts 143°
2026-05-08 07:04 12.40304 121.80141 12919 ft 369 kts 143°
2026-05-08 07:04 12.38253 121.81535 12439 ft 367 kts 146°
2026-05-08 07:04 12.36013 121.82736 11948 ft 367 kts 153°
2026-05-08 07:05 12.33609 121.83648 11469 ft 365 kts 160°
2026-05-08 07:05 12.31184 121.84386 11007 ft 362 kts 161°
2026-05-08 07:05 12.28756 121.85094 10547 ft 359 kts 161°
2026-05-08 07:05 12.26377 121.85789 10245 ft 350 kts 161°
2026-05-08 07:06 12.24068 121.86466 10117 ft 335 kts 161°
2026-05-08 07:06 12.21893 121.87106 10067 ft 319 kts 160°
2026-05-08 07:06 12.19798 121.87727 10006 ft 304 kts 160°
2026-05-08 07:06 12.17788 121.88327 9736 ft 298 kts 160°
2026-05-08 07:07 12.15794 121.88924 9392 ft 296 kts 160°
2026-05-08 07:07 12.13838 121.89508 9052 ft 294 kts 160°
2026-05-08 07:07 12.11859 121.90098 8711 ft 292 kts 159°
2026-05-08 07:07 12.09926 121.90674 8387 ft 290 kts 160°
2026-05-08 07:08 12.07972 121.91255 8051 ft 287 kts 159°
2026-05-08 07:08 12.06020 121.91683 7693 ft 290 kts 176°
2026-05-08 07:08 12.04682 121.91473 7460 ft 294 kts 197°
2026-05-08 07:08 12.03489 121.90820 7239 ft 297 kts 217°
2026-05-08 07:09 12.02965 121.90331 7123 ft 298 kts 227°
2026-05-08 07:09 12.01753 121.88625 6815 ft 296 kts 235°